Date String (YYYY-MM-DD hh:mm:ss) UTC,Instrument flags,absolute air pressure of the measurement (hPa),sample flow rate (lpm),inlet stack bypass flow (lpm),air temperature of the measurement (°C),ambient temperature measured by the external sensor (°C),aerosol sample conditioner tube jacket temperature (°C),OPC LED temperature (°C),internal box temperature (°C),relative humidity of the measurement (%),span deviation,mass concentration of particles derived from Lorenz-Mie calculation of OPC scattering (μg/m³),mass concentration of particles derived from Lorenz-Mie calculation of OPC scattering (μg/m³),mass concentration of particles derived from Lorenz-Mie calculation of OPC scattering (μg/m³)
DateTimeUTC,F1_M11,P_M11,Q1_M11,Q2_M11,T1_M11,T2_M11,T3_M11,T4_M11,T5_M11,U1_M11,ZSPAN_M11,X0_M11,X2_M11,X1_M11
2023-12-17 23:00:00,SystemResetWarning,0834.0,5.00,000.00,025.7,024.5,000.0,033.8,027.1,5.4,0000.0,0001.23,0000.61,0000.44
2023-12-17 23:01:00,SystemResetWarning,0834.1,5.00,000.00,025.7,024.5,000.0,033.8,027.1,5.3,0000.0,0001.03,0000.57,0000.40
2023-12-17 23:02:00,SystemResetWarning,0834.1,5.00,000.00,025.7,024.6,000.0,033.8,027.1,5.4,0000.0,0001.01,0000.56,0000.38
2023-12-17 23:03:00,SystemResetWarning,0834.1,5.00,000.00,025.7,024.7,000.0,033.9,027.2,5.7,0000.0,0001.02,0000.56,0000.37
2023-12-17 23:04:00,SystemResetWarning,0834.1,5.00,000.00,025.7,024.7,000.0,033.9,027.2,5.7,0000.0,0000.94,0000.52,0000.37
2023-12-17 23:05:00,SystemResetWarning,0834.1,5.00,000.00,025.8,024.8,000.0,033.9,027.2,5.4,0000.0,0000.90,0000.50,0000.36
2023-12-17 23:06:00,SystemResetWarning,0834.2,5.00,000.00,025.8,024.8,000.0,033.9,027.3,5.5,0000.0,0000.82,0000.46,0000.35
2023-12-17 23:07:00,SystemResetWarning,0834.2,5.00,000.00,025.8,024.9,000.0,033.9,027.3,5.5,0000.0,0000.75,0000.45,0000.36
2023-12-17 23:08:00,SystemResetWarning,0834.2,5.01,000.00,025.9,024.9,000.0,033.9,027.3,5.4,0000.0,0000.62,0000.44,0000.38
2023-12-17 23:09:00,SystemResetWarning,0834.2,5.00,000.00,025.9,024.9,000.0,033.9,027.3,5.6,0000.0,0000.62,0000.45,0000.39
2023-12-17 23:10:00,SystemResetWarning,0834.2,5.01,000.00,025.9,025.0,000.0,034.0,027.4,5.6,0000.0,0000.64,0000.46,0000.40
2023-12-17 23:11:00,SystemResetWarning,0834.2,5.00,000.00,025.9,025.0,000.0,034.0,027.4,5.6,0000.0,0000.55,0000.44,0000.41
2023-12-17 23:12:00,SystemResetWarning,0834.4,4.99,000.00,026.0,025.0,000.0,034.0,027.4,5.8,0000.0,0000.61,0000.47,0000.42
2023-12-17 23:13:00,SystemResetWarning,0834.4,4.99,000.00,026.0,025.1,000.0,034.0,027.4,5.9,0000.0,0000.69,0000.49,0000.43
2023-12-17 23:14:00,SystemResetWarning,0834.3,5.00,000.00,026.0,025.1,000.0,034.1,027.5,6.0,0000.0,0000.69,0000.50,0000.44
2023-12-17 23:15:00,SystemResetWarning,0834.6,5.01,000.00,026.0,025.1,000.0,034.1,027.5,6.0,0000.0,0000.78,0000.53,0000.46
2023-12-17 23:16:00,SystemResetWarning,0834.5,5.01,000.00,026.0,025.1,000.0,034.1,027.5,6.0,0000.0,0000.91,0000.55,0000.47
2023-12-17 23:17:00,SystemResetWarning,0834.3,5.01,000.00,026.0,025.1,000.0,034.1,027.5,6.1,0000.0,0000.98,0000.60,0000.50
2023-12-17 23:18:00,SystemResetWarning,0834.3,5.00,000.00,026.1,025.1,000.0,034.1,027.5,6.2,0000.0,0001.25,0000.65,0000.53
2023-12-17 23:19:00,SystemResetWarning,0834.4,4.99,000.00,026.1,025.2,000.0,034.2,027.5,6.2,0000.0,0001.34,0000.66,0000.54
2023-12-17 23:20:00,SystemResetWarning,0834.4,4.99,000.00,026.1,025.2,000.0,034.2,027.5,6.3,0000.0,0001.47,0000.69,0000.56
2023-12-17 23:21:00,SystemResetWarning,0834.4,4.99,000.00,026.1,025.2,000.0,034.2,027.5,6.4,0000.0,0001.74,0000.73,0000.58
2023-12-17 23:22:00,SystemResetWarning,0834.4,5.00,000.00,026.1,025.2,000.0,034.2,027.5,6.3,0000.0,0001.83,0000.78,0000.62
2023-12-17 23:23:00,SystemResetWarning,0834.4,5.01,000.00,026.1,025.2,000.0,034.2,027.5,6.3,0000.0,0001.86,0000.81,0000.65
2023-12-17 23:24:00,SystemResetWarning,0834.5,5.01,000.00,026.1,025.2,000.0,034.2,027.5,6.3,0000.0,0001.94,0000.86,0000.70
2023-12-17 23:25:00,SystemResetWarning,0834.5,5.00,000.00,026.1,025.2,000.0,034.3,027.5,6.4,0000.0,0002.16,0000.93,0000.73
2023-12-17 23:26:00,SystemResetWarning,0834.5,5.00,000.00,026.1,025.2,000.0,034.3,027.5,6.5,0000.0,0002.27,0001.01,0000.78
2023-12-17 23:27:00,SystemResetWarning,0834.5,5.00,000.00,026.1,025.2,000.0,034.3,027.5,6.5,0000.0,0002.35,0001.06,0000.82
2023-12-17 23:28:00,SystemResetWarning,0834.9,5.00,000.00,026.1,025.2,000.0,034.3,027.5,6.4,0000.0,0002.39,0001.09,0000.84
2023-12-17 23:29:00,SystemResetWarning,0835.0,5.00,000.00,026.2,025.2,000.0,034.3,027.5,6.3,0000.0,0002.40,0001.14,0000.88
2023-12-17 23:30:00,SystemResetWarning,0835.0,5.00,000.00,026.2,025.2,000.0,034.3,027.5,6.1,0000.0,0002.46,0001.22,0000.93
2023-12-17 23:31:00,SystemResetWarning,0835.1,5.01,000.00,026.2,025.2,000.0,034.3,027.5,5.9,0000.0,0002.48,0001.29,0000.97
2023-12-17 23:32:00,SystemResetWarning,0834.8,5.00,000.00,026.2,025.3,000.0,034.3,027.5,5.9,0000.0,0002.29,0001.33,0001.01
2023-12-17 23:33:00,SystemResetWarning,0834.9,5.01,000.00,026.2,025.3,000.0,034.4,027.5,5.9,0000.0,0002.42,0001.40,0001.03
2023-12-17 23:34:00,SystemResetWarning,0835.0,5.00,000.00,026.2,025.3,000.0,034.4,027.5,5.9,0000.0,0002.44,0001.42,0001.06
2023-12-17 23:35:00,SystemResetWarning,0834.9,5.00,000.00,026.2,025.3,000.0,034.4,027.5,5.8,0000.0,0002.33,0001.40,0001.06
2023-12-17 23:36:00,SystemResetWarning,0834.7,4.99,000.00,026.2,025.3,000.0,034.4,027.6,5.7,0000.0,0002.15,0001.36,0001.04
2023-12-17 23:37:00,SystemResetWarning,0834.8,4.99,000.00,026.2,025.3,000.0,034.4,027.5,5.7,0000.0,0001.98,0001.28,0001.02
2023-12-17 23:38:00,SystemResetWarning,0835.0,5.01,000.00,026.2,025.3,000.0,034.4,027.5,6.1,0000.0,0001.82,0001.25,0001.00
2023-12-17 23:39:00,SystemResetWarning,0835.3,5.01,000.00,026.2,025.3,000.0,034.4,027.5,6.2,0000.0,0002.65,0001.24,0000.99
2023-12-17 23:40:00,SystemResetWarning,0835.1,5.00,000.00,026.2,025.3,000.0,034.4,027.5,6.1,0000.0,0002.96,0001.18,0000.95
2023-12-17 23:41:00,SystemResetWarning,0834.9,5.00,000.00,026.2,025.4,000.0,034.4,027.5,6.2,0000.0,0002.81,0001.10,0000.91
2023-12-17 23:42:00,SystemResetWarning,0834.7,4.99,000.00,026.2,025.4,000.0,034.4,027.4,6.4,0000.0,0002.71,0001.04,0000.88
2023-12-17 23:43:00,SystemResetWarning,0834.9,4.99,000.00,026.1,025.4,000.0,034.4,027.4,6.5,0000.0,0002.69,0001.02,0000.86
2023-12-17 23:44:00,SystemResetWarning,0835.2,5.00,000.00,026.1,025.3,000.0,034.4,027.3,6.5,0000.0,0002.56,0000.96,0000.85
2023-12-17 23:45:00,SystemResetWarning,0835.3,5.00,000.00,026.1,025.3,000.0,034.4,027.3,6.8,0000.0,0002.62,0000.96,0000.83
2023-12-17 23:46:00,SystemResetWarning,0835.0,5.01,000.00,026.1,025.2,000.0,034.4,027.2,6.6,0000.0,0002.75,0001.02,0000.83
2023-12-17 23:47:00,SystemResetWarning,0835.1,5.00,000.00,026.0,025.2,000.0,034.4,027.2,6.8,0000.0,0002.79,0001.04,0000.85
2023-12-17 23:48:00,SystemResetWarning,0835.1,5.00,000.00,026.0,025.2,000.0,034.4,027.2,7.1,0000.0,0002.89,0001.07,0000.86
2023-12-17 23:49:00,SystemResetWarning,0835.2,4.99,000.00,026.0,025.2,000.0,034.4,027.2,7.1,0000.0,0003.25,0001.13,0000.87
2023-12-17 23:50:00,SystemResetWarning,0835.2,4.99,000.00,026.0,025.2,000.0,034.4,027.1,7.1,0000.0,0002.60,0001.17,0000.87
2023-12-17 23:51:00,SystemResetWarning,0835.2,5.00,000.00,026.0,025.2,000.0,034.4,027.1,7.1,0000.0,0002.07,0001.17,0000.86
2023-12-17 23:52:00,SystemResetWarning,0835.3,5.01,000.00,026.0,025.2,000.0,034.4,027.2,7.2,0000.0,0002.14,0001.22,0000.86
2023-12-17 23:53:00,SystemResetWarning,0835.2,5.00,000.00,026.0,025.2,000.0,034.4,027.3,7.2,0000.0,0002.24,0001.26,0000.85
2023-12-17 23:54:00,SystemResetWarning,0835.2,5.01,000.00,026.0,025.2,000.0,034.4,027.4,7.2,0000.0,0003.10,0001.26,0000.82
2023-12-17 23:55:00,SystemResetWarning,0835.3,5.00,000.00,026.0,025.3,000.0,034.4,027.4,7.2,0000.0,0004.04,0001.24,0000.79
2023-12-17 23:56:00,SystemResetWarning,0835.3,5.00,000.00,026.1,025.3,000.0,034.4,027.4,7.3,0000.0,0004.18,0001.23,0000.76
2023-12-17 23:57:00,SystemResetWarning,0835.3,5.00,000.00,026.1,025.3,000.0,034.4,027.5,7.4,0000.0,0004.17,0001.18,0000.74
2023-12-17 23:58:00,SystemResetWarning,0835.3,4.99,000.00,026.1,025.3,000.0,034.4,027.5,7.4,0000.0,0004.27,0001.16,0000.72
2023-12-17 23:59:00,SystemResetWarning,0835.4,4.99,000.00,026.1,025.3,000.0,034.4,027.5,7.5,0000.0,0004.79,0001.17,0000.71
